Location: Ergnies
(50.0854°N, 2.0375°E)
Time: 14:37:00
(UTC+00:00)

Meteor 1-24 Rocket - Pass Details

Date: 14 January 2026
Orbit: 790 x 925 km, 81.3° (Epoch: 18 February)

Event Time Altitude Azimuth Distance (km) Brightness Sun altitude
Rises 06:27:20 0° 348° (NNW) 3,563 6.6 -12.1°
Reaches altitude 10° 06:29:49 10° 350° (N) 2,626 6.0 -11.7°
Maximum altitude 06:35:51 75° 76° (ENE) 962 4.1 -10.8°
Drops below altitude 10° 06:41:52 10° 162° (SSE) 2,613 6.8 -9.9°
Sets 06:44:20 0° 164° (SSE) 3,544 7.5 -9.5°
